Home   Weather   Olten   Past weeks

Flag for Switzerland Past Weather in Olten, Solothurn, Switzerland — Yesterday and Last 2 Weeks

Now
69 °F

Mild.


Feels Like: 69 °F
Forecast: 45 / 68 °F
Wind: 2 mph from Southwest

Location: Wynau

Current Time: Sep 25, 2016 at 7:38:46 PM

Latest Report: Sep 25, 2016 at 6:00 PM


Visibility: N/A

Pressure: 30.08 "Hg

Humidity: 62%

Dew Point: 56 °F

Location of OltenLocation

Past Weather in Olten — Graph

°F

Olten Temperature Yesterday

Maximum temperature yesterday: 71 °F (at 5:00 PM)
Minimum temperature yesterday: 45 °F (at 6:00 AM)
Average temperature yesterday: 55 °F

High & Low Weather Summary for the Past Weeks

 TemperatureHumidityPressure
High83 °F (Sep 14, 4:00 PM)100% (Sep 11, 5:00 AM)30.34 "Hg (Sep 11, 5:00 AM)
Low44 °F (Sep 22, 6:00 AM)42% (Sep 11, 4:00 PM)29.78 "Hg (Sep 14, 6:00 PM)
Average60 °F85%30.05 "Hg
* Reported Sep 10 6:00 PM — Sep 25 6:00 PM, Olten, Weather by CustomWeather, © 2016

Note: Actual official high and low records may vary slightly from our data, if they occured in-between our weather recording intervals... More about our weather records

Advertising

Olten Weather History for the Previous 24 Hours

Scroll right to see more
 ConditionsComfort  
Time TempWeatherWind HumidityBarometerVisibility
6:00 PM
Sun, Sep 25
69 °FMild.2 mph62%30.08 "HgN/A
5:00 PM72 °FMild.3 mph51%30.06 "HgN/A
4:00 PM73 °FMild.5 mph52%30.06 "HgN/A
3:00 PM71 °FMild.6 mph56%30.07 "HgN/A
2:00 PM69 °FMild.5 mph63%30.09 "HgN/A
1:00 PM67 °FMild.5 mph67%30.12 "HgN/A
12:00 PM64 °FMild.3 mph77%30.15 "HgN/A
11:00 AM56 °FCool.1 mph91%30.19 "HgN/A
10:00 AM51 °FCool.1 mph99%30.22 "HgN/A
9:00 AM50 °FCool.1 mph97%30.22 "HgN/A
8:00 AM50 °FCool.1 mph100%30.21 "HgN/A
7:00 AM50 °FCool.1 mph98%30.21 "HgN/A
6:00 AM50 °FCool.1 mph100%30.21 "HgN/A
5:00 AM49 °FCool.No wind100%30.21 "HgN/A
4:00 AM48 °FCool.1 mph100%30.22 "HgN/A
3:00 AM49 °FCool.1 mph100%30.22 "HgN/A
2:00 AM49 °FCool.1 mph100%30.22 "HgN/A
1:00 AM50 °FCool.1 mph99%30.22 "HgN/A
12:00 AM52 °FCool.No wind100%30.22 "HgN/A
11:00 PM
Sat, Sep 24
53 °FCool.No wind97%30.21 "HgN/A
10:00 PM54 °FCool.1 mph98%30.21 "HgN/A
9:00 PM55 °FCool.1 mph98%30.20 "HgN/A
8:00 PM57 °FCool.1 mph90%30.19 "HgN/A
7:00 PM62 °FCool.1 mph80%30.17 "HgN/A
Weather by CustomWeather, © 2016

See weather overviewHow to use our weather pages